Location: Arena
(42.5007°N, 9.4650°E)
Time: 14:49:36
(UTC+00:00)

COSMOS 2455 - Pass Details

Date: 09 April 2020
Orbit: 899 x 910 km, 67.1° (Epoch: 05 June)

Event Time Altitude Azimuth Distance (km) Brightness Sun altitude
Rises 20:02:51 0° 326° (NW) 3,544 7.1 -22.0°
Reaches altitude 10° 20:05:25 10° 322° (NW) 2,600 6.3 -22.3°
Maximum altitude 20:11:17 55° 246° (WSW) 1,082 3.3 -23.2°
Enters shadow 20:13:55 32° 185° (S) 1,520 3.7 -23.6°
